Location: Canet
(43.3261°N, 5.3723°E)
Time: 19:09:45
(UTC+00:00)

Okean 1-7 Rocket - Pass Details

Date: 24 January 2021
Orbit: 615 x 650 km, 82.5° (Epoch: 07 March)

Event Time Altitude Azimuth Distance (km) Brightness Sun altitude
Rises 17:21:28 0° 182° (S) 2,942 7.3 -7.8°
Reaches altitude 10° 17:23:42 10° 181° (S) 2,041 6.5 -8.2°
Maximum altitude 17:28:13 75° 96° (E) 677 3.6 -9.0°
Drops below altitude 10° 17:32:48 10° 12° (NNE) 2,065 6.0 -9.8°
Sets 17:35:05 0° 10° (N) 2,980 6.8 -10.2°
